Location: Central Falls
(41.8900°N, 71.3929°W)
Time: 09:03:43
(UTC+00:00)

Altair - Pass Details

Date: 13 December 2023
Orbit: 1501 x 1682 km, 47.2° (Epoch: 29 February)

Event Time Altitude Azimuth Distance (km) Brightness Sun altitude
Rises 17:57:46 0° 296° (WNW) 4,725 10.0 22.5°
Reaches altitude 10° 18:01:11 10° 287° (WNW) 3,716 9.6 22.3°
Maximum altitude 18:09:16 35° 227° (SW) 2,270 9.9 21.7°
Drops below altitude 10° 18:17:13 10° 166° (SSE) 3,641 10.4 21.1°
Sets 18:20:33 0° 157° (SSE) 4,620 10.6 20.9°
